Tracking 21076 objects as of 9-Aug-2020
HD Live streaming from Space Station
objects crossing your sky now
Track the most recent launched group of Starlink satellites

COSMOS 1619

Track COSMOS 1619 now!
10-day predictions
COSMOS 1619 is classified as:


NORAD ID: 15471
Int'l Code: 1985-003C
Perigee: 1,389.9 km
Apogee: 1,419.2 km
Inclination: 82.6 °
Period: 113.7 minutes
Semi major axis: 7775 km
RCS: 1.1254 m2 (large)
Launch date: January 15, 1985
Source: Commonwealth of Independent States (former USSR) (CIS)
Launch site: PLESETSK MISSILE AND SPACE COMPLEX (PKMTR)
aabbcc
Your satellite tracking list
Your tracking list is empty




NASA's NSSDC Master Catalog

Two Line Element Set (TLE):
1 15471U 85003C   20221.85753803 +.00000039 +00000-0 +15248-3 0  9995
2 15471 082.6106 331.5856 0018816 241.7754 240.4998 12.66207024643423
Source of the keplerian elements: AFSPC